Showing default

IONOSFERA-M 03, 64876

Orbit data source: Space-Track

IONOSFERA-M 03, 64876 is a payload satellite owned by VNIIEM (CIS) in SSO that was launched on Fri, 25 Jul 2025 UTC via a SOYUZ-2-1B launch vehicle from the Vostochny Cosmodrome (VOSTO). Payload-class satellites include a variety of spacecraft equipped with specific instruments for various scientific and technological missions. These include communications satellites like Starlink; space stations such as the ISS; scientific satellites like the Hubble; Earth observation satellites from companies like Planet Labs, Umbra, and HawkEye 360; GPS; miniature CubeSats for education and research; and military/defense satellites.

Loading next visibility...
Identifier
64876, 2025-155A
Orbit
SSO
Country
Flag of CISCIS
Related business
Manufacturer
VNIIEM
Mission
Operational Civil Science
Bus & Motor
IONOSFERA-M, Unknown motor
Mass
430 kg wet, 430 kg dry
Launch date (UTC)
2025-07-25 (11 months ago)
Launch vehicle
SOYUZ-2-1B
Launch site
Vostochny Cosmodrome (VOSTO)
Object type
Payload
Rocket body
Debris
Shape & HBR
Box + 1 Ant, 1.9 m
Radar Cross Section
2.359 m², Large (>1 m²)

Expand to show TLE details & history
Last TLE update: 9 hours ago

TLE from 9 hours ago
0 IONOSFERA-M 03
1 64876U 25155A   26171.48370220  .00000029  00000-0  32756-4 0  9990
2 64876  98.6032 133.3058 0001209 151.0908 209.0337 14.21486879 46879
Epoch: 2026-06-20T11:36Z
TLE epoch observation values (Epoch: 2026-06-20T11:36:31.870Z)
Latitude
0.00002°
Longitude
50.47533°
Altitude
824.01 km
Speed
7.441 km/s
True Right ascension
08h 53m 13s
True Declination
0° 00' 00"
Sunlit
Object was in daylight at epoch
Visualization orbit readout
Latitude
Unknown
Longitude
Unknown
Altitude
Unknown
Speed
Unknown
Apparent Right ascension
Unknown
Apparent Declination
Unknown
Sunlit
N/A
Visualization observer readout
Local Sidereal Time
07:19:37
Azimuth
Unknown
Elevation
Unknown
Doppler factor
Unknown
Orbital elements
Apogee altitude
818.35 km
Perigee altitude
816.61 km
Semi-major axis
7,195.617 km
Eccentricity
0.00012
Inclination
98.6032°
RAAN
133.3058°
Arg. of periapsis
151.0908°
True anomaly
209.02698°
Mean anomaly
209.0337°
Eccentric anomaly
209.03034°
Mean motion
3.55583 °/min
Orbital period
101.24 mins
BSTAR
0.000032756
Loading maneuver chart data...
Computing Atmospheric mass density...
Loading historical data...
Loading historical data...
Loading historical data...
Loading historical data...
Loading historical data...
Loading historical data...
Loading historical data...

Documentation

Showing up to 5 results
|